N9XP-9 Weather Reports


Display with metric or nautical units.
time (UTC)temp
F
wind
direction
speed
MPH
gust
MPH
rain 1hr
in
rain 24hr
in
rain mn
in
humidity
%
barometer
mb
20260903034525 78 127 0.0 0.0 0.00 0.00 0.00 88 1012.4
20260903033025 79 126 0.0 0.0 0.00 0.00 0.00 87 1012.3
20260903031532 79 127 0.0 0.0 0.00 0.00 0.00 86 1012.3
20260903030024 80 127 0.0 0.0 0.00 0.00 0.00 85 1012.1
20260903024523 81 126 0.0 0.0 0.00 0.00 0.00 84 1012.1
20260903023028 82 129 0.0 0.0 0.00 0.00 0.00 81 1012.1
20260903021537 83 125 0.0 2.0 0.00 0.00 0.00 80 1012.0
20260903020023 83 140 0.0 1.0 0.00 0.00 0.00 79 1011.9
20260903014523 84 135 0.0 1.0 0.00 0.00 0.00 77 1011.8
20260903013018 84 138 0.0 2.0 0.00 0.00 0.00 76 1011.7
20260903011522 85 162 0.0 3.0 0.00 0.00 0.00 74 1011.5
20260903010019 85 120 0.0 5.0 0.00 0.00 0.00 72 1011.2
20260903004527 86 182 1.0 5.0 0.00 0.00 0.00 72 1011.1
20260903003018 86 156 1.0 6.0 0.00 0.00 0.00 72 1011.0
20260903001516 87 134 1.0 4.0 0.00 0.00 0.00 70 1011.1
20260903000014 88 194 2.0 7.0 0.00 0.00 0.00 67 1011.3
20260902234513 89 148 2.0 6.0 0.00 0.00 0.00 66 1011.4
20260902233017 90 137 0.0 3.0 0.00 0.00 0.00 65 1011.4
20260902231512 91 147 1.0 4.0 0.00 0.00 0.00 63 1011.4
20260902230011 92 210 1.0 5.0 0.00 0.00 0.00 60 1011.4
20260902224510 91 202 1.0 5.0 0.00 0.00 0.00 61 1011.4
20260902223009 92 157 3.0 7.0 0.00 0.00 0.00 60 1011.6
20260902221508 92 155 1.0 7.0 0.00 0.00 0.00 57 1011.6
20260902220009 93 143 3.0 8.0 0.00 0.00 0.00 57 1011.7
20260902214510 93 164 3.0 7.0 0.00 0.00 0.00 56 1011.7
20260902213006 94 108 3.0 11.0 0.00 0.00 0.00 55 1011.8
20260902211503 94 164 1.0 9.0 0.00 0.00 0.00 55 1011.9
20260902210002 94 148 3.0 9.0 0.00 0.00 0.00 55 1012.0
20260902204500 94 146 5.0 9.0 0.00 0.00 0.00 53 1012.0
20260902203107 94 135 3.0 10.0 0.00 0.00 0.00 53 1011.9
20260902201559 94 136 3.0 9.0 0.00 0.00 0.00 54 1012.0
20260902200058 94 195 2.0 10.0 0.00 0.00 0.00 52 1012.2
20260902194556 94 148 2.0 8.0 0.00 0.00 0.00 52 1012.3
20260902193100 94 149 4.0 9.0 0.00 0.00 0.00 53 1012.3
20260902191602 95 171 1.0 7.0 0.00 0.00 0.00 53 1012.5
20260902190049 93 160 3.0 10.0 0.00 0.00 0.00 55 1012.5
20260902184549 93 134 3.0 8.0 0.00 0.00 0.00 55 1012.7
20260902183047 92 219 2.0 9.0 0.00 0.00 0.00 58 1012.7
20260902181547 93 141 2.0 7.0 0.00 0.00 0.00 56 1012.8
20260902180041 92 103 1.0 9.0 0.00 0.00 0.00 60 1012.8
20260902174550 91 169 3.0 9.0 0.00 0.00 0.00 59 1012.9
20260902173038 91 158 2.0 6.0 0.00 0.00 0.00 59 1012.9
20260902171539 90 195 2.0 5.0 0.00 0.00 0.00 60 1013.0
20260902170035 89 164 1.0 6.0 0.00 0.00 0.00 61 1013.2
20260902164534 88 110 1.0 6.0 0.00 0.00 0.00 65 1013.3
20260902163028 87 130 1.0 5.0 0.00 0.00 0.00 67 1013.3
20260902161530 86 124 2.0 6.0 0.00 0.00 0.00 69 1013.4
20260902160029 85 143 2.0 5.0 0.00 0.00 0.00 68 1013.6
20260902154522 85 131 2.0 6.0 0.00 0.00 0.00 69 1013.5
20260902151514 83 188 2.0 6.0 0.00 0.00 0.00 72 1013.8
20260902150012 83 155 1.0 5.0 0.00 0.00 0.00 73 1013.7
20260902144510 82 191 1.0 6.0 0.00 0.00 0.00 74 1013.6
20260902143009 82 18 0.0 3.0 0.00 0.00 0.00 73 1014.0
20260902141508 82 191 1.0 4.0 0.00 0.00 0.00 75 1013.7
20260902140004 81 136 2.0 4.0 0.00 0.00 0.00 78 1013.8
20260902134504 80 138 1.0 4.0 0.00 0.00 0.00 79 1013.7
20260902133057 79 150 1.0 5.0 0.00 0.00 0.00 81 1013.7
20260902131556 77 94 0.0 2.0 0.00 0.00 0.00 84 1013.9
20260902130055 76 152 1.0 4.0 0.00 0.00 0.00 85 1014.0
20260902124551 76 133 0.0 3.0 0.00 0.00 0.00 86 1014.0
20260902123051 75 146 0.0 1.0 0.00 0.00 0.00 88 1013.9
20260902121550 74 137 0.0 1.0 0.00 0.00 0.00 90 1013.7
20260902120049 73 125 0.0 1.0 0.00 0.00 0.00 91 1013.7
20260902114614 72 126 0.0 0.0 0.00 0.00 0.00 91 1013.7
20260902113055 73 126 0.0 1.0 0.00 0.00 0.00 90 1013.6
20260902111557 73 124 0.0 1.0 0.00 0.00 0.00 90 1013.7
20260902110051 73 123 0.0 0.0 0.00 0.00 0.00 91 1013.7
20260902104547 72 121 0.0 0.0 0.00 0.00 0.00 91 1013.9
20260902103059 73 124 0.0 0.0 0.00 0.00 0.00 89 1013.7
20260902101544 74 124 0.0 0.0 0.00 0.00 0.00 88 1013.8
20260902100104 74 122 0.0 1.0 0.00 0.00 0.00 88 1013.7
20260902094541 75 124 0.0 1.0 0.00 0.00 0.00 87 1013.7
20260902093102 75 122 0.0 1.0 0.00 0.00 0.00 86 1013.7
20260902091539 74 152 0.0 2.0 0.00 0.00 0.00 89 1013.4
20260902090038 73 321 0.0 0.0 0.00 0.00 0.00 93 1013.4
20260902084541 73 152 0.0 0.0 0.00 0.00 0.00 93 1013.3
20260902083039 73 151 0.0 0.0 0.00 0.00 0.00 94 1013.3
20260902081536 73 152 0.0 0.0 0.00 0.00 0.00 94 1013.3
20260902080034 73 153 0.0 0.0 0.00 0.00 0.00 93 1013.3
20260902074538 73 153 0.0 0.0 0.00 0.00 0.00 93 1013.3
20260902073032 73 151 0.0 0.0 0.00 0.00 0.00 92 1013.2
20260902071531 74 152 0.0 0.0 0.00 0.00 0.00 91 1013.1
20260902070026 74 153 0.0 0.0 0.00 0.00 0.00 90 1013.2
20260902064526 75 151 0.0 0.0 0.00 0.00 0.00 90 1013.3
20260902063025 75 150 0.0 0.0 0.00 0.00 0.00 90 1013.4
20260902061526 75 151 0.0 1.0 0.00 0.00 0.00 91 1013.3
20260902060021 75 153 0.0 0.0 0.00 0.00 0.00 89 1013.2
20260902054532 76 152 0.0 1.0 0.00 0.00 0.00 90 1013.2
20260902053020 76 153 0.0 0.0 0.00 0.00 0.00 89 1013.2
20260902051515 77 153 0.0 1.0 0.00 0.00 0.00 87 1013.3
20260902050020 77 133 0.0 1.0 0.00 0.00 0.00 86 1013.3
20260902044510 77 147 0.0 1.0 0.00 0.00 0.00 86 1013.3
20260902043013 78 129 0.0 1.0 0.00 0.00 0.00 84 1013.2
20260902041519 78 127 0.0 0.0 0.00 0.00 0.00 84 1013.2
20260902040006 79 129 0.0 1.0 0.00 0.00 0.00 83 1013.3